Main page
METAR-TAF:

METAR-TAF

Airports :

Abu Musa, Iran

latitude: 25-52-33N, longitude: 055-02-01E, elevation: 7 m

Current weather observation

The report was made 1 hour and 1 minutes ago, at 09:00 UTC
Wind 8 kt from the West/Southwest
Temperature 33°C
Humidity 56%
Pressure 1008 hPa
Visibility 10 km or more
no clouds below 1500 m and no cumulonimbus

METAR: OIBA 220900Z 24008KT CAVOK 33/23 Q1008

Time: 13:31 (10:01 UTC)


TAF: missing

Weather observations and forecasts of more than 4000 airports (METAR and TAF reports).

The available stations are represented by yellow and red dots on the map.

Hover mouse over dot to see the name of the station.

Then click to see weather observations and forecasts.

To change the map : click on the green buttons with a black cross to zoom in, on the green button with a dash to zoom out, or on the green arrows for adjacent maps.


METAR-TAF: